Wetterdaten: Sonntag, 05.08.2012
Datum Zeit Temperatur Luftfeuchte Regen Wind Richtung Richtung Taupunkt Windchill Windben
05.08.2012 00:00 15,2 C 94 % 0,0 l/m 3,1 km/h (1 Bft) S-SW 202 14,2 C 15,1 C 5,0 km/h (1 Bft)
05.08.2012 00:05 15,2 C 94 % 0,0 l/m 3,1 km/h (1 Bft) S-SW 202 14,2 C 15,1 C 5,1 km/h (1 Bft)
05.08.2012 00:10 15,1 C 94 % 0,0 l/m 3,1 km/h (1 Bft) S-SW 202 14,1 C 15,1 C 4,2 km/h (1 Bft)
05.08.2012 00:15 15,1 C 94 % 0,0 l/m 2,9 km/h (1 Bft) N-NW 337 14,1 C 15,2 C 8,2 km/h (2 Bft)
05.08.2012 00:20 15,1 C 94 % 0,0 l/m 2,9 km/h (1 Bft) S-SO 157 14,1 C 15,2 C 3,1 km/h (1 Bft)
05.08.2012 00:25 15,1 C 94 % 0,0 l/m 2,7 km/h (1 Bft) N-NO 22 14,1 C 15,4 C 1,8 km/h (1 Bft)
05.08.2012 00:30 15,1 C 94 % 0,0 l/m 2,7 km/h (1 Bft) O-SO 112 14,1 C 15,4 C 5,3 km/h (1 Bft)
05.08.2012 00:35 15,1 C 94 % 0,0 l/m 1,9 km/h (1 Bft) W-SW 247 14,1 C 15,4 C 2,9 km/h (1 Bft)
05.08.2012 00:40 15,0 C 94 % 0,0 l/m 1,6 km/h (1 Bft) N 360 14,0 C 15,4 C 1,9 km/h (1 Bft)
05.08.2012 00:45 15,0 C 94 % 0,0 l/m 1,4 km/h (1 Bft) O-SO 112 14,0 C 15,4 C 3,9 km/h (1 Bft)
05.08.2012 00:50 15,0 C 94 % 0,0 l/m 1,1 km/h (1 Bft) NO 45 14,0 C 15,3 C 2,4 km/h (1 Bft)
05.08.2012 00:55 14,9 C 95 % 0,0 l/m 0,6 km/h (0 Bft) S 180 14,1 C 15,3 C 1,8 km/h (1 Bft)
05.08.2012 01:00 14,9 C 95 % 0,0 l/m 0,5 km/h (0 Bft) S 180 14,1 C 15,2 C 2,6 km/h (1 Bft)
05.08.2012 01:05 14,9 C 95 % 0,0 l/m 0,5 km/h (0 Bft) NO 45 14,1 C 15,1 C 0,0 km/h (0 Bft)
05.08.2012 01:10 14,9 C 95 % 0,0 l/m 0,6 km/h (0 Bft) O-SO 112 14,1 C 15,0 C 0,0 km/h (0 Bft)
05.08.2012 01:15 14,8 C 95 % 0,0 l/m 0,3 km/h (0 Bft) N 360 14,0 C 15,0 C 0,0 km/h (0 Bft)
05.08.2012 01:20 14,9 C 95 % 0,0 l/m 0,2 km/h (0 Bft) W 270 14,1 C 15,0 C 3,1 km/h (1 Bft)
05.08.2012 01:25 14,9 C 95 % 0,0 l/m 0,5 km/h (0 Bft) W-SW 247 14,1 C 15,0 C 3,2 km/h (1 Bft)
05.08.2012 01:30 14,9 C 95 % 0,0 l/m 0,5 km/h (0 Bft) N 360 14,1 C 15,1 C 0,0 km/h (0 Bft)
05.08.2012 01:35 15,0 C 95 % 0,0 l/m 0,8 km/h (0 Bft) N-NO 22 14,2 C 15,1 C 0,0 km/h (0 Bft)
05.08.2012 01:40 15,0 C 95 % 0,0 l/m 0,6 km/h (0 Bft) N-NW 337 14,2 C 15,2 C 0,0 km/h (0 Bft)
05.08.2012 01:45 15,1 C 95 % 0,0 l/m 1,3 km/h (1 Bft) W-SW 247 14,3 C 15,3 C 1,6 km/h (1 Bft)
05.08.2012 01:50 15,0 C 95 % 0,0 l/m 1,4 km/h (1 Bft) N-NW 337 14,2 C 15,3 C 2,3 km/h (1 Bft)
05.08.2012 01:55 15,0 C 95 % 0,0 l/m 1,4 km/h (1 Bft) S-SW 202 14,2 C 15,3 C 2,7 km/h (1 Bft)
05.08.2012 02:00 15,1 C 95 % 0,0 l/m 1,3 km/h (1 Bft) S 180 14,3 C 15,3 C 3,4 km/h (1 Bft)
05.08.2012 02:05 15,1 C 95 % 0,0 l/m 0,8 km/h (0 Bft) W-NW 292 14,3 C 15,3 C 1,8 km/h (1 Bft)
05.08.2012 02:10 15,1 C 95 % 0,0 l/m 0,8 km/h (0 Bft) S-SW 202 14,3 C 15,3 C 5,5 km/h (1 Bft)
05.08.2012 02:15 15,1 C 95 % 0,0 l/m 1,0 km/h (0 Bft) NO 45 14,3 C 15,3 C 3,4 km/h (1 Bft)
05.08.2012 02:20 15,1 C 95 % 0,0 l/m 1,8 km/h (1 Bft) SO 135 14,3 C 15,3 C 5,5 km/h (1 Bft)
05.08.2012 02:25 15,3 C 95 % 0,0 l/m 5,0 km/h (1 Bft) SO 135 14,5 C 15,5 C 13,4 km/h (3 Bft)
05.08.2012 02:30 15,2 C 95 % 0,0 l/m 5,0 km/h (1 Bft) S 180 14,4 C 15,4 C 2,1 km/h (1 Bft)
05.08.2012 02:35 15,1 C 95 % 0,0 l/m 2,1 km/h (1 Bft) N-NW 337 14,3 C 15,2 C 1,9 km/h (1 Bft)
05.08.2012 02:40 15,1 C 95 % 0,7 l/m 1,4 km/h (1 Bft) N-NW 337 14,3 C 15,1 C 1,6 km/h (1 Bft)
05.08.2012 02:45 15,1 C 95 % 0,0 l/m 1,0 km/h (0 Bft) N 360 14,3 C 15,0 C 0,0 km/h (0 Bft)
05.08.2012 02:50 15,1 C 95 % 0,0 l/m 0,6 km/h (0 Bft) N-NW 337 14,3 C 15,0 C 0,0 km/h (0 Bft)
05.08.2012 02:55 15,1 C 95 % 0,0 l/m 1,0 km/h (0 Bft) N-NW 337 14,3 C 15,0 C 2,1 km/h (1 Bft)
05.08.2012 03:00 15,0 C 95 % 0,0 l/m 1,4 km/h (1 Bft) SW 225 14,2 C 15,0 C 0,0 km/h (0 Bft)
05.08.2012 03:05 15,0 C 95 % 0,0 l/m 2,7 km/h (1 Bft) N-NO 22 14,2 C 14,9 C 3,2 km/h (1 Bft)
05.08.2012 03:10 15,0 C 95 % 0,0 l/m 2,6 km/h (1 Bft) NO 45 14,2 C 14,9 C 0,0 km/h (0 Bft)
05.08.2012 03:15 14,9 C 95 % 0,0 l/m 1,3 km/h (1 Bft) N-NO 22 14,1 C 14,9 C 3,5 km/h (1 Bft)
05.08.2012 03:20 14,9 C 95 % 0,0 l/m 0,5 km/h (0 Bft) O-NO 67 14,1 C 14,9 C 0,0 km/h (0 Bft)
05.08.2012 03:25 14,9 C 95 % 0,0 l/m 0,3 km/h (0 Bft) NO 45 14,1 C 14,8 C 0,0 km/h (0 Bft)
05.08.2012 03:30 14,9 C 95 % 0,0 l/m 0,5 km/h (0 Bft) N-NW 337 14,1 C 14,8 C 2,1 km/h (1 Bft)
05.08.2012 03:35 14,8 C 95 % 0,0 l/m 1,1 km/h (1 Bft) N-NO 22 14,0 C 14,7 C 0,0 km/h (0 Bft)
05.08.2012 03:40 14,8 C 95 % 0,0 l/m 1,3 km/h (1 Bft) N-NO 22 14,0 C 14,7 C 4,3 km/h (1 Bft)
05.08.2012 03:45 14,7 C 95 % 0,0 l/m 0,6 km/h (0 Bft) N-NO 22 13,9 C 14,7 C 0,0 km/h (0 Bft)
05.08.2012 03:50 14,7 C 95 % 0,0 l/m 0,5 km/h (0 Bft) N-NO 22 13,9 C 14,7 C 0,0 km/h (0 Bft)
05.08.2012 03:55 14,7 C 95 % 0,0 l/m 0,3 km/h (0 Bft) N 360 13,9 C 14,7 C 0,0 km/h (0 Bft)
05.08.2012 04:00 14,7 C 95 % 0,0 l/m 0,6 km/h (0 Bft) N 360 13,9 C 14,6 C 0,0 km/h (0 Bft)
05.08.2012 04:05 14,7 C 95 % 0,0 l/m 0,5 km/h (0 Bft) N-NW 337 13,9 C 14,5 C 0,0 km/h (0 Bft)
05.08.2012 04:10 14,6 C 95 % 0,0 l/m 0,2 km/h (0 Bft) O-SO 112 13,8 C 14,5 C 0,0 km/h (0 Bft)
05.08.2012 04:15 14,5 C 95 % 0,0 l/m 0,0 km/h (0 Bft) NO 45 13,7 C 14,4 C 0,0 km/h (0 Bft)
05.08.2012 04:20 14,5 C 95 % 0,0 l/m 0,0 km/h (0 Bft) O 90 13,7 C 14,3 C 0,0 km/h (0 Bft)
05.08.2012 04:25 14,4 C 95 % 0,0 l/m 0,0 km/h (0 Bft) N-NO 22 13,6 C 14,2 C 0,0 km/h (0 Bft)
05.08.2012 04:30 14,3 C 95 % 0,0 l/m 0,0 km/h (0 Bft) S 180 13,5 C 14,2 C 0,0 km/h (0 Bft)
05.08.2012 04:35 14,2 C 95 % 0,0 l/m 0,0 km/h (0 Bft) N-NW 337 13,4 C 14,1 C 0,0 km/h (0 Bft)
05.08.2012 04:40 14,1 C 95 % 0,0 l/m 0,0 km/h (0 Bft) W 270 13,3 C 14,0 C 0,0 km/h (0 Bft)
05.08.2012 04:45 14,0 C 95 % 0,0 l/m 0,5 km/h (0 Bft) S-SW 202 13,2 C 13,9 C 1,8 km/h (1 Bft)
05.08.2012 04:50 13,9 C 95 % 0,0 l/m 0,3 km/h (0 Bft) NO 45 13,1 C 13,8 C 0,0 km/h (0 Bft)
05.08.2012 04:55 13,8 C 95 % 0,0 l/m 0,3 km/h (0 Bft) N 360 13,0 C 13,7 C 2,1 km/h (1 Bft)
05.08.2012 05:00 13,8 C 95 % 0,0 l/m 0,6 km/h (0 Bft) N 360 13,0 C 13,7 C 3,2 km/h (1 Bft)
05.08.2012 05:05 13,8 C 95 % 0,0 l/m 1,0 km/h (0 Bft) S 180 13,0 C 13,7 C 2,1 km/h (1 Bft)
05.08.2012 05:10 13,8 C 95 % 0,0 l/m 1,0 km/h (0 Bft) N 360 13,0 C 13,7 C 1,6 km/h (1 Bft)
05.08.2012 05:15 13,8 C 95 % 0,0 l/m 0,6 km/h (0 Bft) O-SO 112 13,0 C 13,7 C 0,0 km/h (0 Bft)
05.08.2012 05:20 13,7 C 95 % 0,0 l/m 0,3 km/h (0 Bft) S-SO 157 12,9 C 13,7 C 1,8 km/h (1 Bft)
05.08.2012 05:25 13,8 C 95 % 0,0 l/m 0,5 km/h (0 Bft) N 360 13,0 C 13,7 C 2,4 km/h (1 Bft)
05.08.2012 05:30 13,8 C 95 % 0,0 l/m 0,6 km/h (0 Bft) NO 45 13,0 C 13,7 C 0,0 km/h (0 Bft)
05.08.2012 05:35 13,9 C 95 % 0,0 l/m 0,5 km/h (0 Bft) O 90 13,1 C 13,7 C 0,0 km/h (0 Bft)
05.08.2012 05:40 13,9 C 95 % 0,0 l/m 0,2 km/h (0 Bft) O-SO 112 13,1 C 13,7 C 0,0 km/h (0 Bft)
05.08.2012 05:45 13,8 C 95 % 0,0 l/m 0,3 km/h (0 Bft) N 360 13,0 C 13,7 C 0,0 km/h (0 Bft)
05.08.2012 05:50 13,8 C 95 % 0,0 l/m 0,2 km/h (0 Bft) NO 45 13,0 C 13,6 C 0,0 km/h (0 Bft)
05.08.2012 05:55 13,7 C 95 % 0,0 l/m 0,0 km/h (0 Bft) N 360 12,9 C 13,5 C 0,0 km/h (0 Bft)
05.08.2012 06:00 13,7 C 95 % 0,0 l/m 0,0 km/h (0 Bft) W 270 12,9 C 13,6 C 0,0 km/h (0 Bft)
05.08.2012 06:05 13,6 C 95 % 0,0 l/m 0,0 km/h (0 Bft) O-SO 112 12,8 C 13,4 C 0,0 km/h (0 Bft)
05.08.2012 06:10 13,5 C 95 % 0,0 l/m 0,0 km/h (0 Bft) NO 45 12,7 C 13,3 C 0,0 km/h (0 Bft)
05.08.2012 06:15 13,6 C 95 % 0,0 l/m 0,0 km/h (0 Bft) N-NO 22 12,8 C 13,3 C 0,0 km/h (0 Bft)
05.08.2012 06:20 13,6 C 95 % 0,0 l/m 0,0 km/h (0 Bft) N-NO 22 12,8 C 13,3 C 0,0 km/h (0 Bft)
05.08.2012 06:25 13,7 C 95 % 0,0 l/m 0,2 km/h (0 Bft) N 360 12,9 C 13,3 C 1,8 km/h (1 Bft)
05.08.2012 06:30 13,7 C 95 % 0,0 l/m 0,2 km/h (0 Bft) S-SO 157 12,9 C 13,4 C 0,0 km/h (0 Bft)
05.08.2012 06:35 13,7 C 95 % 0,0 l/m 0,2 km/h (0 Bft) S-SW 202 12,9 C 13,5 C 1,6 km/h (1 Bft)
05.08.2012 06:40 13,7 C 95 % 0,0 l/m 0,2 km/h (0 Bft) N-NW 337 12,9 C 13,6 C 0,0 km/h (0 Bft)
05.08.2012 06:45 13,8 C 95 % 0,0 l/m 0,6 km/h (0 Bft) SO 135 13,0 C 13,8 C 2,9 km/h (1 Bft)
05.08.2012 06:50 13,9 C 95 % 0,0 l/m 1,0 km/h (0 Bft) S-SO 157 13,1 C 13,8 C 4,0 km/h (1 Bft)
05.08.2012 06:55 14,1 C 95 % 0,0 l/m 1,0 km/h (0 Bft) N-NO 22 13,3 C 14,0 C 0,0 km/h (0 Bft)
05.08.2012 07:00 14,1 C 95 % 0,0 l/m 1,0 km/h (0 Bft) S-SO 157 13,3 C 14,0 C 4,3 km/h (1 Bft)
05.08.2012 07:05 14,2 C 95 % 0,0 l/m 1,0 km/h (0 Bft) W-NW 292 13,4 C 14,0 C 1,9 km/h (1 Bft)
05.08.2012 07:10 14,2 C 95 % 0,0 l/m 1,0 km/h (0 Bft) N-NW 337 13,4 C 14,2 C 1,8 km/h (1 Bft)
05.08.2012 07:15 14,3 C 95 % 0,0 l/m 0,6 km/h (0 Bft) NO 45 13,5 C 14,2 C 2,3 km/h (1 Bft)
05.08.2012 07:20 14,5 C 95 % 0,0 l/m 1,0 km/h (0 Bft) N-NO 22 13,7 C 14,3 C 0,0 km/h (0 Bft)
05.08.2012 07:25 14,7 C 95 % 0,0 l/m 1,1 km/h (1 Bft) SO 135 13,9 C 14,6 C 2,1 km/h (1 Bft)
05.08.2012 07:30 14,9 C 95 % 0,0 l/m 0,8 km/h (0 Bft) O-SO 112 14,1 C 14,8 C 5,3 km/h (1 Bft)
05.08.2012 07:35 15,2 C 95 % 0,0 l/m 0,6 km/h (0 Bft) O-SO 112 14,4 C 15,3 C 0,0 km/h (0 Bft)
05.08.2012 07:40 15,3 C 95 % 0,0 l/m 0,6 km/h (0 Bft) N 360 14,5 C 15,6 C 2,7 km/h (1 Bft)
05.08.2012 07:45 15,6 C 95 % 0,0 l/m 1,4 km/h (1 Bft) NO 45 14,8 C 15,9 C 5,1 km/h (1 Bft)
05.08.2012 07:50 15,8 C 95 % 0,0 l/m 2,3 km/h (1 Bft) NO 45 15,0 C 16,1 C 2,7 km/h (1 Bft)
05.08.2012 07:55 16,8 C 94 % 0,0 l/m 2,9 km/h (1 Bft) O-SO 112 15,8 C 16,7 C 5,3 km/h (1 Bft)
05.08.2012 08:00 17,6 C 93 % 0,0 l/m 3,9 km/h (1 Bft) O-SO 112 16,5 C 17,9 C 5,6 km/h (1 Bft)
05.08.2012 08:05 17,5 C 93 % 0,0 l/m 5,3 km/h (1 Bft) O-SO 112 16,4 C 18,4 C 19,3 km/h (3 Bft)
05.08.2012 08:10 17,9 C 93 % 0,0 l/m 6,0 km/h (2 Bft) O-SO 112 16,8 C 18,7 C 12,1 km/h (2 Bft)
05.08.2012 08:15 17,8 C 92 % 0,0 l/m 7,4 km/h (2 Bft) O-SO 112 16,5 C 18,7 C 16,3 km/h (3 Bft)
05.08.2012 08:20 16,9 C 92 % 0,0 l/m 8,5 km/h (2 Bft) O-SO 112 15,6 C 17,8 C 6,1 km/h (2 Bft)
05.08.2012 08:25 16,6 C 92 % 0,0 l/m 8,9 km/h (2 Bft) O-SO 112 15,3 C 16,9 C 8,7 km/h (2 Bft)
05.08.2012 08:30 16,7 C 92 % 0,0 l/m 7,4 km/h (2 Bft) O-SO 112 15,4 C 17,2 C 10,8 km/h (2 Bft)
05.08.2012 08:35 16,8 C 92 % 0,0 l/m 6,6 km/h (2 Bft) O-SO 112 15,5 C 17,6 C 5,3 km/h (1 Bft)
05.08.2012 08:40 16,7 C 92 % 0,0 l/m 5,8 km/h (2 Bft) SO 135 15,4 C 17,7 C 6,0 km/h (2 Bft)
05.08.2012 08:45 16,7 C 92 % 0,0 l/m 4,3 km/h (1 Bft) S-SO 157 15,4 C 17,6 C 2,1 km/h (1 Bft)
05.08.2012 08:50 16,6 C 92 % 0,0 l/m 3,4 km/h (1 Bft) NO 45 15,3 C 17,6 C 0,0 km/h (0 Bft)
05.08.2012 08:55 16,2 C 92 % 0,0 l/m 1,6 km/h (1 Bft) SW 225 14,9 C 17,5 C 2,7 km/h (1 Bft)
05.08.2012 09:00 16,1 C 92 % 0,0 l/m 1,3 km/h (1 Bft) N-NO 22 14,8 C 17,2 C 2,1 km/h (1 Bft)
05.08.2012 09:05 16,1 C 92 % 0,0 l/m 2,1 km/h (1 Bft) N-NW 337 14,8 C 16,7 C 10,1 km/h (2 Bft)
05.08.2012 09:10 16,1 C 92 % 0,0 l/m 3,7 km/h (1 Bft) O-SO 112 14,8 C 16,4 C 1,6 km/h (1 Bft)
05.08.2012 09:15 16,5 C 92 % 0,0 l/m 4,7 km/h (1 Bft) O 90 15,2 C 16,4 C 6,1 km/h (2 Bft)
05.08.2012 09:20 16,7 C 92 % 0,0 l/m 3,5 km/h (1 Bft) N-NO 22 15,4 C 16,7 C 2,1 km/h (1 Bft)
05.08.2012 09:25 17,0 C 92 % 0,0 l/m 2,4 km/h (1 Bft) O 90 15,7 C 17,2 C 0,0 km/h (0 Bft)
05.08.2012 09:30 16,9 C 92 % 0,0 l/m 0,6 km/h (0 Bft) W 270 15,6 C 17,6 C 2,3 km/h (1 Bft)
05.08.2012 09:35 16,7 C 92 % 0,0 l/m 1,4 km/h (1 Bft) O-SO 112 15,4 C 17,7 C 0,0 km/h (0 Bft)
05.08.2012 09:40 16,6 C 92 % 0,0 l/m 2,3 km/h (1 Bft) N-NO 22 15,3 C 17,6 C 0,0 km/h (0 Bft)
05.08.2012 09:45 16,7 C 92 % 0,0 l/m 1,8 km/h (1 Bft) N-NW 337 15,4 C 17,6 C 3,4 km/h (1 Bft)
05.08.2012 09:50 16,8 C 92 % 0,0 l/m 1,6 km/h (1 Bft) N-NW 337 15,5 C 17,6 C 1,6 km/h (1 Bft)
05.08.2012 09:55 17,0 C 92 % 0,0 l/m 1,0 km/h (0 Bft) W-NW 292 15,7 C 17,9 C 0,0 km/h (0 Bft)
05.08.2012 10:00 17,0 C 92 % 0,0 l/m 1,1 km/h (1 Bft) NW 315 15,7 C 18,0 C 2,9 km/h (1 Bft)
05.08.2012 10:05 17,1 C 92 % 0,0 l/m 3,1 km/h (1 Bft) W 270 15,8 C 18,1 C 5,3 km/h (1 Bft)
05.08.2012 10:10 17,3 C 92 % 0,0 l/m 3,2 km/h (1 Bft) W-NW 292 16,0 C 18,3 C 4,5 km/h (1 Bft)
05.08.2012 10:15 17,4 C 91 % 0,0 l/m 2,6 km/h (1 Bft) W-NW 292 15,9 C 18,6 C 0,0 km/h (0 Bft)
05.08.2012 10:20 17,6 C 91 % 0,0 l/m 2,6 km/h (1 Bft) SO 135 16,1 C 18,9 C 4,8 km/h (1 Bft)
05.08.2012 10:25 18,5 C 91 % 0,0 l/m 3,1 km/h (1 Bft) NW 315 17,0 C 19,6 C 3,9 km/h (1 Bft)
05.08.2012 10:30 18,9 C 91 % 0,0 l/m 2,6 km/h (1 Bft) W 270 17,4 C 20,3 C 3,5 km/h (1 Bft)
05.08.2012 10:35 19,1 C 90 % 0,0 l/m 2,3 km/h (1 Bft) W-NW 292 17,4 C 21,1 C 4,3 km/h (1 Bft)
05.08.2012 10:40 19,4 C 90 % 0,0 l/m 2,6 km/h (1 Bft) S 180 17,7 C 21,3 C 2,7 km/h (1 Bft)
05.08.2012 10:45 20,3 C 89 % 0,0 l/m 2,6 km/h (1 Bft) S-SW 202 18,4 C 21,9 C 2,4 km/h (1 Bft)
05.08.2012 10:50 21,2 C 89 % 0,0 l/m 2,3 km/h (1 Bft) W-SW 247 19,8 C 22,7 C 4,8 km/h (1 Bft)
05.08.2012 10:55 21,0 C 89 % 0,0 l/m 2,1 km/h (1 Bft) O-SO 112 19,1 C 23,3 C 0,0 km/h (0 Bft)
05.08.2012 11:00 20,7 C 89 % 0,0 l/m 1,4 km/h (1 Bft) W 270 18,8 C 23,3 C 0,0 km/h (0 Bft)
05.08.2012 11:05 20,4 C 89 % 0,0 l/m 0,0 km/h (0 Bft) S 180 18,5 C 23,1 C 0,0 km/h (0 Bft)
05.08.2012 11:10 20,4 C 89 % 0,0 l/m 0,0 km/h (0 Bft) N 360 18,5 C 22,8 C 0,0 km/h (0 Bft)
05.08.2012 11:15 21,6 C 89 % 0,0 l/m 0,0 km/h (0 Bft) N-NW 337 19,7 C 23,2 C 0,0 km/h (0 Bft)
05.08.2012 11:20 22,1 C 89 % 0,0 l/m 0,2 km/h (0 Bft) O-SO 112 20,2 C 24,2 C 0,0 km/h (0 Bft)
05.08.2012 11:25 22,5 C 88 % 0,0 l/m 0,3 km/h (0 Bft) S 180 20,4 C 24,6 C 0,0 km/h (0 Bft)
05.08.2012 11:30 23,1 C 87 % 0,0 l/m 0,8 km/h (0 Bft) W-SW 247 20,8 C 25,8 C 4,5 km/h (1 Bft)
05.08.2012 11:35 23,8 C 86 % 0,0 l/m 1,0 km/h (0 Bft) NO 45 21,6 C 26,3 C 0,0 km/h (0 Bft)
05.08.2012 11:40 24,3 C 85 % 0,0 l/m 1,1 km/h (1 Bft) N 360 21,6 C 27,6 C 2,6 km/h (1 Bft)
05.08.2012 11:45 24,4 C 85 % 0,7 l/m 0,6 km/h (0 Bft) O-NO 67 21,7 C 28,0 C 0,0 km/h (0 Bft)
05.08.2012 11:50 24,7 C 85 % 0,0 l/m 1,0 km/h (0 Bft) S-SW 202 22,0 C 28,8 C 2,4 km/h (1 Bft)
05.08.2012 11:55 24,4 C 85 % 0,0 l/m 1,1 km/h (1 Bft) W-NW 292 21,7 C 28,4 C 4,5 km/h (1 Bft)
05.08.2012 12:00 24,6 C 83 % 0,0 l/m 1,8 km/h (1 Bft) W 270 21,5 C 28,1 C 4,3 km/h (1 Bft)
05.08.2012 12:05 25,4 C 81 % 0,0 l/m 2,7 km/h (1 Bft) SW 225 21,9 C 28,6 C 7,2 km/h (2 Bft)
05.08.2012 12:10 24,3 C 80 % 0,0 l/m 3,2 km/h (1 Bft) W 270 20,6 C 28,1 C 3,5 km/h (1 Bft)
05.08.2012 12:15 25,9 C 82 % 0,0 l/m 3,7 km/h (1 Bft) S-SW 202 22,6 C 27,4 C 4,0 km/h (1 Bft)
05.08.2012 12:20 26,1 C 77 % 0,0 l/m 3,5 km/h (1 Bft) S 180 21,7 C 27,8 C 4,0 km/h (1 Bft)
05.08.2012 12:25 26,4 C 78 % 0,0 l/m 3,2 km/h (1 Bft) N-NO 22 22,2 C 28,4 C 0,0 km/h (0 Bft)
05.08.2012 12:30 26,8 C 79 % 0,0 l/m 2,1 km/h (1 Bft) O-SO 112 22,8 C 29,0 C 3,2 km/h (1 Bft)
05.08.2012 12:35 26,7 C 79 % 0,0 l/m 1,1 km/h (1 Bft) S 180 22,7 C 29,2 C 0,0 km/h (0 Bft)
05.08.2012 12:40 27,2 C 77 % 0,0 l/m 1,9 km/h (1 Bft) S-SW 202 22,8 C 29,3 C 2,4 km/h (1 Bft)
05.08.2012 12:45 26,9 C 73 % 0,0 l/m 2,9 km/h (1 Bft) O-SO 112 21,6 C 29,2 C 5,0 km/h (1 Bft)
05.08.2012 12:50 26,8 C 68 % 0,0 l/m 3,4 km/h (1 Bft) S-SW 202 20,4 C 29,2 C 7,9 km/h (2 Bft)
05.08.2012 12:55 26,4 C 62 % 0,0 l/m 3,9 km/h (1 Bft) W-SW 247 18,5 C 28,8 C 4,2 km/h (1 Bft)
05.08.2012 13:00 26,7 C 62 % 0,0 l/m 4,2 km/h (1 Bft) O-SO 112 18,8 C 28,9 C 8,7 km/h (2 Bft)
05.08.2012 13:05 26,8 C 59 % 0,0 l/m 4,8 km/h (1 Bft) S-SO 157 18,1 C 28,7 C 6,6 km/h (2 Bft)
05.08.2012 13:10 26,9 C 52 % 0,0 l/m 5,3 km/h (1 Bft) S 180 16,2 C 28,6 C 3,9 km/h (1 Bft)
05.08.2012 13:15 27,0 C 49 % 0,0 l/m 4,8 km/h (1 Bft) O-SO 112 15,4 C 28,7 C 9,7 km/h (2 Bft)
05.08.2012 13:20 26,8 C 49 % 0,0 l/m 6,0 km/h (2 Bft) O-SO 112 15,2 C 28,4 C 11,1 km/h (2 Bft)
05.08.2012 13:25 27,0 C 48 % 0,0 l/m 7,1 km/h (2 Bft) S 180 15,0 C 27,9 C 5,8 km/h (2 Bft)
05.08.2012 13:30 27,0 C 49 % 0,0 l/m 6,6 km/h (2 Bft) S-SO 157 15,4 C 27,8 C 5,5 km/h (1 Bft)
05.08.2012 13:35 26,6 C 50 % 0,0 l/m 6,1 km/h (2 Bft) W-SW 247 15,3 C 27,6 C 5,5 km/h (1 Bft)
05.08.2012 13:40 27,2 C 49 % 0,0 l/m 5,3 km/h (1 Bft) S 180 15,5 C 27,7 C 5,0 km/h (1 Bft)
05.08.2012 13:45 26,8 C 49 % 0,0 l/m 5,1 km/h (1 Bft) S 180 15,2 C 27,9 C 10,1 km/h (2 Bft)
05.08.2012 13:50 26,6 C 52 % 0,0 l/m 5,6 km/h (1 Bft) S-SW 202 15,9 C 27,8 C 5,5 km/h (1 Bft)
05.08.2012 13:55 26,2 C 50 % 0,0 l/m 5,6 km/h (1 Bft) S-SW 202 14,9 C 28,0 C 8,0 km/h (2 Bft)
05.08.2012 14:00 26,2 C 51 % 0,0 l/m 5,3 km/h (1 Bft) S-SO 157 15,2 C 27,4 C 6,1 km/h (2 Bft)
05.08.2012 14:05 27,1 C 50 % 0,0 l/m 6,0 km/h (2 Bft) SW 225 15,8 C 27,7 C 9,0 km/h (2 Bft)
05.08.2012 14:10 27,1 C 49 % 0,0 l/m 5,6 km/h (1 Bft) S 180 15,4 C 27,9 C 7,4 km/h (2 Bft)
05.08.2012 14:15 26,8 C 49 % 0,0 l/m 6,0 km/h (2 Bft) S-SO 157 15,2 C 28,3 C 6,8 km/h (2 Bft)
05.08.2012 14:20 27,8 C 51 % 0,0 l/m 5,1 km/h (1 Bft) O 90 16,7 C 28,8 C 11,6 km/h (2 Bft)
05.08.2012 14:25 27,4 C 50 % 0,0 l/m 5,8 km/h (2 Bft) SO 135 16,0 C 29,1 C 6,4 km/h (2 Bft)
05.08.2012 14:30 27,8 C 48 % 0,0 l/m 6,8 km/h (2 Bft) S-SO 157 15,8 C 29,2 C 9,0 km/h (2 Bft)
05.08.2012 14:35 28,0 C 45 % 0,0 l/m 6,1 km/h (2 Bft) S-SO 157 14,9 C 29,6 C 8,5 km/h (2 Bft)
05.08.2012 14:40 28,2 C 46 % 0,0 l/m 5,0 km/h (1 Bft) S 180 15,5 C 29,7 C 5,0 km/h (1 Bft)
05.08.2012 14:45 27,5 C 46 % 0,0 l/m 5,5 km/h (1 Bft) SO 135 14,8 C 29,3 C 6,4 km/h (2 Bft)
05.08.2012 14:50 26,3 C 47 % 0,0 l/m 6,4 km/h (2 Bft) S-SW 202 14,1 C 28,6 C 7,7 km/h (2 Bft)
05.08.2012 14:55 25,4 C 51 % 0,0 l/m 5,1 km/h (1 Bft) O-SO 112 14,5 C 27,2 C 6,4 km/h (2 Bft)
05.08.2012 15:00 25,3 C 53 % 0,0 l/m 4,0 km/h (1 Bft) S 180 15,0 C 26,8 C 4,5 km/h (1 Bft)
05.08.2012 15:05 25,0 C 54 % 0,0 l/m 3,5 km/h (1 Bft) SO 135 15,0 C 26,4 C 3,7 km/h (1 Bft)
05.08.2012 15:10 26,5 C 52 % 0,0 l/m 3,5 km/h (1 Bft) O 90 15,8 C 26,9 C 7,1 km/h (2 Bft)
05.08.2012 15:15 26,0 C 50 % 0,0 l/m 4,3 km/h (1 Bft) S-SO 157 14,8 C 28,0 C 6,1 km/h (2 Bft)
05.08.2012 15:20 25,7 C 53 % 0,0 l/m 5,5 km/h (1 Bft) S 180 15,4 C 27,5 C 8,2 km/h (2 Bft)
05.08.2012 15:25 26,1 C 50 % 0,0 l/m 5,6 km/h (1 Bft) O-SO 112 14,8 C 27,4 C 6,0 km/h (2 Bft)
05.08.2012 15:30 25,7 C 53 % 0,0 l/m 5,6 km/h (1 Bft) S 180 15,4 C 27,5 C 6,3 km/h (2 Bft)
05.08.2012 15:35 26,3 C 50 % 0,0 l/m 6,0 km/h (2 Bft) S 180 15,0 C 27,3 C 5,6 km/h (1 Bft)
05.08.2012 15:40 26,4 C 50 % 0,0 l/m 6,0 km/h (2 Bft) SO 135 15,1 C 27,8 C 3,5 km/h (1 Bft)
05.08.2012 15:45 25,9 C 53 % 0,0 l/m 5,5 km/h (1 Bft) S-SO 157 15,6 C 28,0 C 6,6 km/h (2 Bft)
05.08.2012 15:50 25,8 C 54 % 0,0 l/m 5,0 km/h (1 Bft) W 270 15,8 C 27,5 C 4,2 km/h (1 Bft)
05.08.2012 15:55 25,5 C 54 % 0,0 l/m 4,8 km/h (1 Bft) SO 135 15,5 C 27,3 C 7,4 km/h (2 Bft)
05.08.2012 16:00 24,9 C 55 % 0,0 l/m 4,7 km/h (1 Bft) O-SO 112 15,2 C 26,8 C 7,7 km/h (2 Bft)
05.08.2012 16:05 23,7 C 57 % 0,0 l/m 5,1 km/h (1 Bft) SO 135 14,7 C 25,3 C 5,5 km/h (1 Bft)
05.08.2012 16:10 23,3 C 59 % 0,0 l/m 5,0 km/h (1 Bft) SO 135 14,8 C 24,7 C 5,0 km/h (1 Bft)
05.08.2012 16:15 22,8 C 61 % 0,0 l/m 4,0 km/h (1 Bft) O-SO 112 14,9 C 23,8 C 3,7 km/h (1 Bft)
05.08.2012 16:20 22,5 C 61 % 0,0 l/m 4,2 km/h (1 Bft) SO 135 14,6 C 23,5 C 9,8 km/h (2 Bft)
05.08.2012 16:25 22,0 C 63 % 0,0 l/m 4,3 km/h (1 Bft) O 90 14,6 C 23,0 C 7,2 km/h (2 Bft)
05.08.2012 16:30 21,8 C 64 % 0,0 l/m 5,3 km/h (1 Bft) O 90 14,7 C 22,6 C 7,4 km/h (2 Bft)
05.08.2012 16:35 21,5 C 66 % 0,0 l/m 7,9 km/h (2 Bft) SO 135 14,9 C 21,5 C 19,8 km/h (3 Bft)
05.08.2012 16:40 21,2 C 65 % 0,0 l/m 10,6 km/h (2 Bft) SO 135 14,4 C 20,5 C 18,3 km/h (3 Bft)
05.08.2012 16:45 18,1 C 75 % 0,0 l/m 15,1 km/h (3 Bft) O-SO 112 13,6 C 16,3 C 32,2 km/h (5 Bft)
05.08.2012 16:50 16,8 C 80 % 0,0 l/m 14,5 km/h (3 Bft) S-SO 157 13,3 C 13,5 C 17,1 km/h (3 Bft)
05.08.2012 16:55 15,8 C 84 % 2,1 l/m 9,5 km/h (2 Bft) S 180 13,1 C 13,7 C 9,7 km/h (2 Bft)
05.08.2012 17:00 15,3 C 85 % 0,7 l/m 7,2 km/h (2 Bft) S-SO 157 12,8 C 14,3 C 4,5 km/h (1 Bft)
05.08.2012 17:05 14,8 C 87 % 0,0 l/m 4,8 km/h (1 Bft) N-NO 22 12,7 C 14,5 C 4,8 km/h (1 Bft)
05.08.2012 17:10 14,8 C 88 % 0,0 l/m 3,5 km/h (1 Bft) W-SW 247 12,8 C 14,4 C 2,1 km/h (1 Bft)
05.08.2012 17:15 15,0 C 89 % 0,0 l/m 3,2 km/h (1 Bft) N-NO 22 13,2 C 14,5 C 4,0 km/h (1 Bft)
05.08.2012 17:20 15,2 C 89 % 0,0 l/m 1,9 km/h (1 Bft) NO 45 13,4 C 14,7 C 0,0 km/h (0 Bft)
05.08.2012 17:25 16,0 C 89 % 0,0 l/m 0,3 km/h (0 Bft) N 360 14,2 C 16,5 C 0,0 km/h (0 Bft)
05.08.2012 17:30 16,5 C 90 % 0,0 l/m 0,2 km/h (0 Bft) O-SO 112 14,9 C 18,5 C 1,6 km/h (1 Bft)
05.08.2012 17:35 17,2 C 90 % 0,0 l/m 0,8 km/h (0 Bft) O-NO 67 15,5 C 21,5 C 1,6 km/h (1 Bft)
05.08.2012 17:40 17,8 C 90 % 0,0 l/m 1,4 km/h (1 Bft) W-SW 247 16,1 C 23,1 C 2,3 km/h (1 Bft)
05.08.2012 17:45 18,4 C 90 % 0,0 l/m 2,6 km/h (1 Bft) S-SW 202 16,7 C 24,1 C 4,0 km/h (1 Bft)
05.08.2012 17:50 18,5 C 89 % 0,0 l/m 2,4 km/h (1 Bft) S-SW 202 16,7 C 24,5 C 1,8 km/h (1 Bft)
05.08.2012 17:55 18,5 C 88 % 0,0 l/m 2,6 km/h (1 Bft) N-NW 337 16,5 C 25,1 C 6,1 km/h (2 Bft)
05.08.2012 18:00 18,3 C 87 % 0,0 l/m 3,1 km/h (1 Bft) S-SW 202 16,1 C 24,9 C 2,1 km/h (1 Bft)
05.08.2012 18:05 18,3 C 87 % 0,0 l/m 4,8 km/h (1 Bft) W-SW 247 16,1 C 24,0 C 4,5 km/h (1 Bft)
05.08.2012 18:10 18,2 C 86 % 0,0 l/m 5,0 km/h (1 Bft) W-SW 247 15,8 C 23,8 C 4,7 km/h (1 Bft)
05.08.2012 18:15 18,0 C 86 % 0,0 l/m 5,1 km/h (1 Bft) W-NW 292 15,6 C 23,2 C 5,6 km/h (1 Bft)
05.08.2012 18:20 17,9 C 86 % 0,0 l/m 5,0 km/h (1 Bft) W-SW 247 15,5 C 23,0 C 9,2 km/h (2 Bft)
05.08.2012 18:25 17,9 C 86 % 0,0 l/m 4,5 km/h (1 Bft) N-NW 337 15,5 C 22,9 C 7,1 km/h (2 Bft)
05.08.2012 18:30 17,9 C 86 % 0,0 l/m 4,2 km/h (1 Bft) W-SW 247 15,5 C 22,8 C 4,7 km/h (1 Bft)
05.08.2012 18:35 17,8 C 87 % 0,0 l/m 3,4 km/h (1 Bft) W-SW 247 15,6 C 22,8 C 5,3 km/h (1 Bft)
05.08.2012 18:40 17,6 C 87 % 0,0 l/m 3,1 km/h (1 Bft) W-SW 247 15,4 C 22,6 C 1,8 km/h (1 Bft)
05.08.2012 18:45 17,6 C 88 % 0,0 l/m 2,9 km/h (1 Bft) N 360 15,6 C 22,5 C 2,1 km/h (1 Bft)
05.08.2012 18:50 17,5 C 88 % 0,0 l/m 2,6 km/h (1 Bft) W 270 15,5 C 22,3 C 4,0 km/h (1 Bft)
05.08.2012 18:55 17,4 C 89 % 0,0 l/m 2,4 km/h (1 Bft) W-SW 247 15,6 C 21,8 C 6,4 km/h (2 Bft)
05.08.2012 19:00 17,4 C 89 % 0,0 l/m 3,4 km/h (1 Bft) W-NW 292 15,6 C 21,6 C 4,5 km/h (1 Bft)
05.08.2012 19:05 17,5 C 89 % 0,0 l/m 5,0 km/h (1 Bft) W 270 15,7 C 21,6 C 5,6 km/h (1 Bft)
05.08.2012 19:10 17,3 C 89 % 0,0 l/m 4,5 km/h (1 Bft) N 360 15,5 C 21,4 C 7,4 km/h (2 Bft)
05.08.2012 19:15 16,9 C 89 % 0,0 l/m 3,4 km/h (1 Bft) O-NO 67 15,1 C 20,2 C 3,5 km/h (1 Bft)
05.08.2012 19:20 16,8 C 89 % 0,0 l/m 3,1 km/h (1 Bft) W-NW 292 15,0 C 19,6 C 3,9 km/h (1 Bft)
05.08.2012 19:25 16,8 C 90 % 0,0 l/m 1,6 km/h (1 Bft) N-NO 22 15,1 C 19,4 C 0,0 km/h (0 Bft)
05.08.2012 19:30 16,9 C 90 % 0,0 l/m 0,8 km/h (0 Bft) O 90 15,2 C 19,9 C 0,0 km/h (0 Bft)
05.08.2012 19:35 17,2 C 90 % 0,0 l/m 0,0 km/h (0 Bft) NO 45 15,5 C 21,0 C 0,0 km/h (0 Bft)
05.08.2012 19:40 17,3 C 90 % 0,0 l/m 0,0 km/h (0 Bft) N 360 15,6 C 21,9 C 0,0 km/h (0 Bft)
05.08.2012 19:45 17,2 C 90 % 0,0 l/m 0,0 km/h (0 Bft) O-NO 67 15,5 C 22,4 C 0,0 km/h (0 Bft)
05.08.2012 19:50 17,2 C 90 % 0,0 l/m 0,0 km/h (0 Bft) N 360 15,5 C 21,8 C 0,0 km/h (0 Bft)
05.08.2012 19:55 17,0 C 90 % 0,0 l/m 0,2 km/h (0 Bft) N-NW 337 15,3 C 21,1 C 0,0 km/h (0 Bft)
05.08.2012 20:00 17,0 C 90 % 0,0 l/m 0,3 km/h (0 Bft) NO 45 15,3 C 20,5 C 0,0 km/h (0 Bft)
05.08.2012 20:05 16,8 C 90 % 0,0 l/m 0,0 km/h (0 Bft) N-NO 22 15,1 C 19,8 C 0,0 km/h (0 Bft)
05.08.2012 20:10 16,7 C 91 % 0,0 l/m 0,2 km/h (0 Bft) N 360 15,2 C 19,0 C 0,0 km/h (0 Bft)
05.08.2012 20:15 16,5 C 90 % 0,0 l/m 0,6 km/h (0 Bft) N-NO 22 14,9 C 17,9 C 0,0 km/h (0 Bft)
05.08.2012 20:20 16,4 C 91 % 0,0 l/m 0,5 km/h (0 Bft) N 360 14,9 C 17,4 C 0,0 km/h (0 Bft)
05.08.2012 20:25 16,2 C 91 % 0,0 l/m 0,0 km/h (0 Bft) NO 45 14,7 C 17,3 C 0,0 km/h (0 Bft)
05.08.2012 20:30 16,2 C 91 % 0,0 l/m 0,8 km/h (0 Bft) N-NO 22 14,7 C 17,3 C 2,6 km/h (1 Bft)
05.08.2012 20:35 16,0 C 91 % 0,0 l/m 0,6 km/h (0 Bft) S-SO 157 14,5 C 17,1 C 0,0 km/h (0 Bft)
05.08.2012 20:40 15,9 C 92 % 0,0 l/m 0,2 km/h (0 Bft) N-NO 22 14,6 C 16,7 C 0,0 km/h (0 Bft)
05.08.2012 20:45 15,8 C 92 % 0,0 l/m 0,3 km/h (0 Bft) N 360 14,5 C 16,2 C 3,1 km/h (1 Bft)
05.08.2012 20:50 15,7 C 92 % 0,0 l/m 0,3 km/h (0 Bft) N 360 14,4 C 15,9 C 0,0 km/h (0 Bft)
05.08.2012 20:55 15,5 C 93 % 0,0 l/m 0,3 km/h (0 Bft) N 360 14,4 C 15,6 C 0,0 km/h (0 Bft)
05.08.2012 21:00 15,4 C 93 % 0,0 l/m 0,2 km/h (0 Bft) N 360 14,3 C 15,4 C 1,6 km/h (1 Bft)
05.08.2012 21:05 15,3 C 93 % 0,0 l/m 0,3 km/h (0 Bft) S-SO 157 14,2 C 15,3 C 1,8 km/h (1 Bft)
05.08.2012 21:10 15,3 C 93 % 0,0 l/m 0,3 km/h (0 Bft) S 180 14,2 C 15,2 C 0,0 km/h (0 Bft)
05.08.2012 21:15 15,4 C 93 % 0,0 l/m 0,5 km/h (0 Bft) N-NW 337 14,3 C 15,2 C 2,6 km/h (1 Bft)
05.08.2012 21:20 15,3 C 93 % 0,0 l/m 0,3 km/h (0 Bft) N 360 14,2 C 15,2 C 0,0 km/h (0 Bft)
05.08.2012 21:25 15,2 C 93 % 0,0 l/m 0,6 km/h (0 Bft) S 180 14,1 C 15,0 C 0,0 km/h (0 Bft)
05.08.2012 21:30 15,1 C 93 % 0,0 l/m 0,5 km/h (0 Bft) N-NO 22 14,0 C 15,0 C 0,0 km/h (0 Bft)
05.08.2012 21:35 15,0 C 93 % 0,0 l/m 0,3 km/h (0 Bft) W-SW 247 13,9 C 14,8 C 1,9 km/h (1 Bft)
05.08.2012 21:40 15,0 C 93 % 0,0 l/m 0,2 km/h (0 Bft) N-NW 337 13,9 C 14,8 C 0,0 km/h (0 Bft)
05.08.2012 21:45 15,1 C 93 % 0,0 l/m 0,2 km/h (0 Bft) SO 135 14,0 C 14,8 C 0,0 km/h (0 Bft)
05.08.2012 21:50 15,1 C 93 % 0,0 l/m 0,0 km/h (0 Bft) N 360 14,0 C 14,8 C 0,0 km/h (0 Bft)
05.08.2012 21:55 15,0 C 93 % 0,0 l/m 0,5 km/h (0 Bft) N-NW 337 13,9 C 14,7 C 0,0 km/h (0 Bft)
05.08.2012 22:00 14,9 C 93 % 0,0 l/m 0,5 km/h (0 Bft) S 180 13,8 C 14,7 C 0,0 km/h (0 Bft)
05.08.2012 22:05 14,8 C 94 % 0,0 l/m 0,3 km/h (0 Bft) S 180 13,8 C 14,6 C 0,0 km/h (0 Bft)
05.08.2012 22:10 14,9 C 94 % 0,0 l/m 0,8 km/h (0 Bft) O-SO 112 13,9 C 14,7 C 2,9 km/h (1 Bft)
05.08.2012 22:15 15,0 C 93 % 0,0 l/m 2,1 km/h (1 Bft) NO 45 13,9 C 14,8 C 0,0 km/h (0 Bft)
05.08.2012 22:20 15,0 C 93 % 0,0 l/m 1,8 km/h (1 Bft) N-NO 22 13,9 C 14,8 C 0,0 km/h (0 Bft)
05.08.2012 22:25 15,0 C 93 % 0,0 l/m 0,3 km/h (0 Bft) N-NW 337 13,9 C 14,6 C 0,0 km/h (0 Bft)
05.08.2012 22:30 14,8 C 94 % 0,0 l/m 0,0 km/h (0 Bft) SW 225 13,8 C 14,5 C 0,0 km/h (0 Bft)
05.08.2012 22:35 14,7 C 94 % 0,0 l/m 0,0 km/h (0 Bft) NO 45 13,7 C 14,3 C 0,0 km/h (0 Bft)
05.08.2012 22:40 14,6 C 94 % 0,0 l/m 0,0 km/h (0 Bft) N-NO 22 13,6 C 14,2 C 0,0 km/h (0 Bft)
05.08.2012 22:45 14,5 C 94 % 0,0 l/m 0,0 km/h (0 Bft) N 360 13,5 C 14,1 C 0,0 km/h (0 Bft)
05.08.2012 22:50 14,4 C 94 % 0,0 l/m 0,0 km/h (0 Bft) W-NW 292 13,4 C 14,0 C 0,0 km/h (0 Bft)
05.08.2012 22:55 14,1 C 94 % 0,0 l/m 0,0 km/h (0 Bft) SO 135 13,1 C 13,9 C 0,0 km/h (0 Bft)
05.08.2012 23:00 14,0 C 94 % 0,0 l/m 0,0 km/h (0 Bft) W-SW 247 13,0 C 13,8 C 0,0 km/h (0 Bft)
05.08.2012 23:05 13,8 C 94 % 0,0 l/m 0,0 km/h (0 Bft) N 360 12,9 C 13,6 C 0,0 km/h (0 Bft)
05.08.2012 23:10 13,9 C 94 % 0,0 l/m 0,5 km/h (0 Bft) W-NW 292 12,9 C 13,6 C 4,0 km/h (1 Bft)
05.08.2012 23:15 14,1 C 94 % 0,0 l/m 1,3 km/h (1 Bft) NW 315 13,1 C 13,8 C 1,9 km/h (1 Bft)
05.08.2012 23:20 14,1 C 94 % 0,0 l/m 1,4 km/h (1 Bft) N 360 13,1 C 13,9 C 2,6 km/h (1 Bft)
05.08.2012 23:25 14,0 C 94 % 0,0 l/m 1,0 km/h (0 Bft) W-NW 292 13,0 C 14,0 C 0,0 km/h (0 Bft)
05.08.2012 23:30 14,0 C 94 % 0,0 l/m 0,8 km/h (0 Bft) N-NO 22 13,0 C 13,9 C 0,0 km/h (0 Bft)
05.08.2012 23:35 14,1 C 94 % 0,0 l/m 0,2 km/h (0 Bft) N 360 13,1 C 13,7 C 0,0 km/h (0 Bft)
05.08.2012 23:40 13,9 C 94 % 0,0 l/m 0,2 km/h (0 Bft) SO 135 12,9 C 13,7 C 0,0 km/h (0 Bft)
05.08.2012 23:45 13,8 C 94 % 0,0 l/m 0,5 km/h (0 Bft) N-NO 22 12,9 C 13,5 C 2,6 km/h (1 Bft)
05.08.2012 23:50 13,9 C 94 % 0,0 l/m 0,6 km/h (0 Bft) N-NW 337 12,9 C 13,5 C 0,0 km/h (0 Bft)
05.08.2012 23:55 13,8 C 94 % 0,0 l/m 0,6 km/h (0 Bft) O-NO 67 12,9 C 13,4 C 2,1 km/h (1 Bft)
_ Min-Zeit 06:10 14:35 - 23:05 - - 17:05 06:25 23:50
Minimum _ 13,5 C 45 % - 0,0 km/h (0 Bft) - - 12,7 C 13,3 C 0,0 km/h (0 Bft)
_ Max-Zeit 14:40 07:50 16:55 16:45 - - 12:30 14:40 16:45
Maximum _ 28,2 C 95 % 2,1 l/m 15,1 km/h
O-SO (3 Bft)
- - 22,8 C 29,7 C 32,2 km/h
O-SO (5 Bft)
Durchschnitt _ 17,9 C 86 % #4,1 l/m 2,3 km/h (1 Bft) O-SO - 15,1 C 19,0 C 3,2 km/h (1 Bft)